Location: The Saddle
(36.8333°N, 80.3417°W)
Time: 00:41:31
(UTC-05:00)

Vanguard 2 Rocket - All Passes

Search period start: 10 December 2023 00:00
Search period end: 20 December 2023 00:00
Orbit: 553 x 3312 km, 32.9° (Epoch: 09 December)

Date Brightness Start Highest point End Pass type
(mag) Time Alt. Az. Time Alt. Az. Time Alt. Az.
10 Dec - 09:38:24 10° SE 09:38:48 10° SE 09:39:13 10° ESE daylight
10 Dec - 11:40:13 10° SSW 11:51:06 42° SE 12:07:31 10° E daylight
10 Dec - 13:52:02 10° WSW 14:06:47 72° SSE 14:27:04 10° E daylight
10 Dec - 16:06:51 10° W 16:25:09 78° S 16:44:44 10° ESE daylight
10 Dec - 18:23:48 10° W 18:43:12 57° SSW 18:59:28 10° SE visible
10 Dec - 20:44:10 10° W 20:58:19 26° SW 21:09:30 10° S visible
11 Dec - 10:40:13 10° S 10:48:58 29° SE 11:01:48 10° E daylight
11 Dec - 12:50:22 10° SW 13:03:07 63° SSE 13:22:23 10° E daylight
11 Dec - 15:04:03 10° W 15:20:37 79° S 15:41:00 10° E daylight
11 Dec - 17:19:58 10° W 17:39:07 67° SSW 17:57:15 10° ESE visible
11 Dec - 19:38:24 10° W 19:55:35 37° SW 20:09:27 10° SSE visible
12 Dec - 09:41:36 10° SSE 09:47:26 17° SE 09:55:00 10° E daylight
12 Dec - 11:49:17 10° SW 12:00:08 51° SSE 12:17:23 10° E daylight
12 Dec - 14:01:46 10° WSW 14:16:21 76° S 14:36:45 10° E daylight
12 Dec - 16:16:40 10° W 16:34:43 73° SSW 16:54:18 10° ESE daylight
12 Dec - 18:33:43 10° W 18:52:15 48° SSW 19:08:21 10° SE visible
12 Dec - 20:56:01 10° W 21:06:55 18° SW 21:16:13 10° SSW visible
13 Dec - 10:48:50 10° SSW 10:57:50 38° SE 11:12:04 10° E daylight
13 Dec - 12:59:58 10° WSW 13:12:34 70° SSE 13:32:03 10° E daylight
13 Dec - 15:13:54 10° W 15:30:15 77° S 15:50:40 10° ESE daylight
13 Dec - 17:29:47 10° W 17:48:23 58° SSW 18:06:23 10° SE visible
13 Dec - 19:49:03 10° W 20:04:18 28° SW 20:17:16 10° S visible
14 Dec - 09:49:12 10° S 09:56:10 24° SE 10:06:18 10° E daylight
14 Dec - 11:58:42 10° SW 12:09:24 60° SSE 12:27:05 10° E daylight
14 Dec - 14:11:36 10° W 14:26:00 78° S 14:46:24 10° E daylight
14 Dec - 16:26:31 10° W 16:44:09 67° SSW 17:03:39 10° ESE daylight
14 Dec - 18:43:52 10° W 19:01:09 39° SW 19:16:44 10° SSE visible
14 Dec - 21:11:38 10° WSW 21:15:32 11° SW 21:19:14 10° SW visible
15 Dec - 08:51:35 10° SSE 08:54:58 13° SE 08:59:00 10° ESE daylight
15 Dec - 10:57:55 10° SW 11:06:55 47° SSE 11:21:58 10° E daylight
15 Dec - 13:09:45 10° WSW 13:22:10 75° S 13:41:42 10° E daylight
15 Dec - 15:23:46 10° W 15:39:51 73° SSW 16:00:09 10° ESE daylight
15 Dec - 17:39:45 10° W 17:57:29 49° SSW 18:15:09 10° SE visible
15 Dec - 20:00:41 10° W 20:12:58 20° SW 20:24:01 10° S visible
16 Dec - 09:57:46 10° SSW 10:05:05 33° SE 10:16:43 10° E daylight
16 Dec - 12:08:20 10° WSW 12:18:54 68° SSE 12:36:44 10° E daylight
16 Dec - 14:21:30 10° W 14:35:41 77° S 14:55:59 10° ESE daylight
16 Dec - 16:36:25 10° W 16:53:30 58° SSW 17:12:42 10° SE daylight
16 Dec - 18:54:31 10° W 19:09:57 30° SW 19:24:27 10° S visible
17 Dec - 08:58:32 10° S 09:03:47 19° SE 09:11:04 10° E daylight
17 Dec - 11:07:22 10° SW 11:16:14 57° SSE 11:31:42 10° E daylight
17 Dec - 13:19:38 10° W 13:31:52 77° S 13:51:19 10° E daylight
17 Dec - 15:33:40 10° W 15:49:22 66° SSW 16:09:25 10° ESE daylight
17 Dec - 17:49:58 10° W 18:06:31 39° SW 18:23:25 10° SSE visible
17 Dec - 20:15:00 10° WSW 20:21:42 13° SW 20:28:06 10° SSW visible
18 Dec - 10:06:52 10° SW 10:14:14 42° SSE 10:26:43 10° E daylight
18 Dec - 12:18:10 10° WSW 12:28:33 73° S 12:46:22 10° E daylight
18 Dec - 14:31:25 10° W 14:45:19 72° SSW 15:05:26 10° ESE daylight
18 Dec - 16:46:26 10° W 17:02:44 49° SSW 17:21:20 10° SE daylight
18 Dec - 19:06:04 10° W 19:18:46 21° SW 19:31:06 10° S visible
19 Dec - 09:06:58 10° SSW 09:12:47 27° SE 09:21:44 10° E daylight
19 Dec - 11:17:02 10° WSW 11:25:47 65° SSE 11:41:21 10° E daylight
19 Dec - 13:29:34 10° W 13:41:35 76° S 14:00:52 10° ESE daylight
19 Dec - 15:43:37 10° W 15:58:48 58° SSW 16:18:22 10° SE daylight
19 Dec - 18:00:38 10° W 18:15:29 30° SW 18:30:58 10° SSE visible
